This demonstration page uses our WeatherBlox Daily Observations layout. Learn more.

Left ArrowRight Arrow

Hourly Observations for March 21, 2020

Temp ( °F °C ) Dew Point ( °F °C ) Humidity (%) Winds ( mph kmh ) Pressure ( in mb ) Visibility ( mi km ) Precip ( " mm )
12:54 am 00:54 Cloudy 22 -5.6 15 -9.4 75 75 N 5 7 30.64 1038 10 16.0934 0 0
1:54 am 01:54 Cloudy 24 -4.4 15 -9.4 68 68 NE 6 9 30.62 1037 10 16.0934 0 0
2:54 am 02:54 Partly Cloudy 21 -6.1 14 -10 74 74 NE 3 6 30.62 1037 10 16.0934 0 0
3:54 am 03:54 Cloudy 23 -5 15 -9.4 72 72 NE 3 6 30.59 1036 10 16.0934 0 0
4:54 am 04:54 Clear 22 -5.6 13 -10.6 68 68 ESE 5 7 30.56 1035 10 16.0934 0 0
5:54 am 05:54 Clear 20 -6.7 13 -10.6 74 74 SSE 3 6 30.56 1035 10 16.0934 0 0
6:54 am 06:54 Mostly Clear 21 -6.1 13 -10.6 71 71 S 3 6 30.58 1036 10 16.0934 0 0
7:54 am 07:54 Mostly Cloudy 22 -5.6 15 -9.4 75 75 S 5 7 30.57 1035 10 16.0934 0 0
8:54 am 08:54 Sunny 25 -3.9 16 -8.9 69 69 SSE 8 13 30.57 1035 10 16.0934 0 0
9:54 am 09:54 Sunny 29 -1.7 15 -9.4 56 56 SSE 12 19 30.55 1035 10 16.0934 0 0
10:54 am 10:54 Sunny 32 0 17 -8.3 54 54 S 13 20 30.55 1035 10 16.0934 0 0
11:54 am 11:54 Sunny 36 2.2 18 -7.8 48 48 S 9 15 30.53 1034 10 16.0934 0 0
12:54 pm 12:54 Sunny 38 3.3 17 -8.3 43 43 S 10 17 30.5 1033 10 16.0934 0 0
1:54 pm 13:54 Sunny 41 5 17 -8.3 38 38 SSW 13 20 30.46 1032 10 16.0934 0 0
2:54 pm 14:54 Sunny 45 7.2 18 -7.8 34 34 S 13 20 30.4 1030 10 16.0934 0 0
3:54 pm 15:54 Sunny 47 8.3 18 -7.8 31 31 S 15 24 30.36 1028 10 16.0934 0 0
4:54 pm 16:54 Mostly Sunny 47 8.3 19 -7.2 33 33 S 13 20 30.33 1027 10 16.0934 0 0
5:54 pm 17:54 Sunny 48 8.9 19 -7.2 32 32 S 16 26 30.3 1026 10 16.0934 0 0
6:54 pm 18:54 Sunny 46 7.8 20 -6.7 35 35 SSE 15 24 30.3 1026 10 16.0934 0 0
7:54 pm 19:54 Clear 40 4.4 21 -6.1 47 47 SSE 9 15 30.29 1026 10 16.0934 0 0
8:54 pm 20:54 Clear 40 4.4 23 -5 51 51 SE 8 13 30.29 1026 10 16.0934 0 0
9:54 pm 21:54 Clear 38 3.3 24 -4.4 57 57 SSE 10 17 30.29 1026 10 16.0934 0 0
10:54 pm 22:54 Clear 37 2.8 23 -5 57 57 SSE 10 17 30.29 1026 10 16.0934 0 0
11:54 pm 23:54 Clear 39 3.9 24 -4.4 55 55 SSE 12 19 30.29 1026 10 16.0934 0 0

Powered by AerisWeather